Home > Weather > Sfax > Past weeks

Flag for Tunisia Past Weather in Sfax, Tunisia — Yesterday and Last 2 Weeks

Now
82 °F

Sunny.


Feels Like: 85 °F
Forecast: 72 / 88 °F
Wind: 10 mph from Southeast

Location: Sfax El-Maou

Current Time: Jul 23, 2016 at 8:19:09 PM

Latest Report: Jul 23, 2016 at 7:00 PM


Visibility: 10 mi

Pressure: 29.95 "Hg

Humidity: 58%

Dew Point: 66 °F

Location of SfaxLocation

Past Weather in Sfax — Graph

°F

Sfax Temperature Yesterday

Maximum temperature yesterday: 88 °F (at 12:00 PM)
Minimum temperature yesterday: 72 °F (at 4:00 AM)
Average temperature yesterday: 81 °F

High & Low Weather Summary for the Past Weeks

 TemperatureHumidityPressure
High95 °F (Jul 21, 11:00 AM)94% (Jul 22, 1:00 AM)30.15 "Hg (Jul 22, 1:00 AM)
Low66 °F (Jul 17, 5:00 AM)22% (Jul 21, 11:00 AM)29.74 "Hg (Jul 12, 4:00 PM)
Average81 °F57%29.99 "Hg
* Reported Jul 8 7:00 PM — Jul 23 7:00 PM, Sfax, Weather by CustomWeather, © 2016

Note: Actual official high and low records may vary slightly from our data, if they occured in-between our weather recording intervals... More about our weather records

Advertising

Sfax Weather History for the Previous 24 Hours

Scroll right to see more
 ConditionsComfort  
Time TempWeatherWind HumidityBarometerVisibility
7:00 PM
Sat, Jul 23
82 °FSunny.10 mph58%29.95 "Hg10 mi
6:00 PM84 °FSunny.12 mph58%29.95 "Hg10 mi
5:00 PM86 °FPassing clouds.7 mph49%29.95 "HgN/A
4:00 PM88 °FSunny.10 mph40%29.95 "Hg10 mi
3:00 PM90 °FPassing clouds.7 mph33%29.95 "HgN/A
2:00 PM90 °FPassing clouds.8 mph33%29.95 "HgN/A
1:00 PM88 °FPassing clouds.9 mph38%29.98 "HgN/A
12:00 PM86 °FPassing clouds.10 mph49%29.98 "HgN/A
11:00 AM86 °FPassing clouds.8 mph52%29.98 "HgN/A
10:00 AM84 °FPassing clouds.7 mph55%29.98 "HgN/A
9:00 AM82 °FPassing clouds.7 mph62%29.98 "HgN/A
7:00 AM75 °FSunny.3 mph78%29.98 "Hg10 mi
6:00 AM72 °FSunny.No wind83%29.95 "Hg10 mi
5:00 AM72 °FClear.No wind88%29.95 "Hg10 mi
3:00 AM73 °FClear.3 mph83%29.95 "Hg10 mi
2:00 AM75 °FClear.No wind78%29.98 "Hg10 mi
1:00 AM77 °FClear.6 mph79%29.98 "Hg10 mi
12:00 AM77 °FClear.6 mph74%29.98 "Hg10 mi
11:00 PM
Fri, Jul 22
79 °FClear.5 mph70%29.98 "Hg10 mi
10:00 PM79 °FClear.6 mph74%29.98 "Hg10 mi
9:00 PM81 °FClear.9 mph66%29.98 "Hg10 mi
8:00 PM81 °FClear.10 mph70%29.98 "Hg10 mi
Weather by CustomWeather, © 2016

See weather overviewHow to use our weather pages